Location: Newark
(35.2672°N, 80.7344°W)
Time: 12:34:46
(UTC+00:00)

Vanguard 2 Rocket - Pass Details

Date: 25 January 2020
Orbit: 553 x 3327 km, 32.9° (Epoch: 24 February)

Event Time Altitude Azimuth Distance (km) Brightness Sun altitude
Rises 09:29:03 0° 230° (SW) 2,708 - -36.3°
Reaches altitude 10° 09:31:17 10° 219° (SW) 1,835 - -35.8°
Maximum altitude 09:34:51 31° 155° (SSE) 1,082 - -35.1°
Exits shadow 09:36:38 24° 116° (ESE) 1,397 8.3 -34.7°
Drops below altitude 10° 09:39:20 10° 93° (E) 2,330 9.8 -34.2°
Sets 09:42:33 0° 84° (E) 3,599 11.0 -33.5°
